GW6223 Weather Reports


time (UTC)temp
C
wind
direction
speed
KPH
gust
KPH
rain 1hr
cm
rain 24hr
cm
rain mn
cm
humidity
%
barometer
mb
20260506092119 13 235 0.0 0.0 0.00 0.00 0.00 97 1016.4
20260506091617 13 243 0.0 3.2 0.00 0.00 0.00 97 1016.2
20260506091114 13 116 0.0 3.2 0.00 0.00 0.00 97 1016.2
20260506090613 13 39 0.0 1.6 0.00 0.00 0.00 97 1016.2
20260506090108 13 108 1.6 3.2 0.00 0.00 0.00 97 1016.3
20260506085606 13 63 0.0 1.6 0.00 0.00 0.00 96 1016.3
20260506085102 13 73 0.0 3.2 0.00 0.00 0.00 96 1016.3
20260506084559 13 58 0.0 3.2 0.00 0.00 0.00 96 1016.3
20260506084055 13 129 0.0 1.6 0.00 0.00 0.00 96 1016.4
20260506083552 13 55 0.0 1.6 0.00 0.00 0.00 96 1016.4
20260506083050 13 50 0.0 1.6 0.00 0.00 0.00 96 1016.7
20260506082546 13 95 1.6 3.2 0.00 0.00 0.00 96 1016.6
20260506082042 13 55 0.0 1.6 0.00 0.00 0.00 95 1016.6
20260506081540 13 60 0.0 3.2 0.00 0.00 0.00 95 1016.6
20260506081037 13 32 1.6 1.6 0.00 0.00 0.00 95 1016.7
20260506080535 13 55 0.0 1.6 0.00 0.00 0.00 95 1016.7
20260506073518 13 172 0.0 6.4 0.00 0.00 0.00 94 1016.4
20260506073015 13 103 0.0 3.2 0.00 0.00 0.00 94 1016.5
20260506072513 13 38 3.2 3.2 0.00 0.00 0.00 93 1016.3
20260506072010 13 83 1.6 3.2 0.00 0.00 0.00 93 1016.5
20260506071508 13 38 0.0 3.2 0.00 0.00 0.00 93 1016.3
20260506071005 13 137 0.0 3.2 0.00 0.00 0.00 93 1016.5
20260506070502 14 50 0.0 0.0 0.00 0.00 0.00 93 1016.4
20260506062439 14 4 0.0 3.2 0.00 0.00 0.00 94 1016.7
20260506061935 14 72 0.0 3.2 0.00 0.00 0.00 94 1016.6
20260506061432 13 89 0.0 0.0 0.00 0.00 0.00 93 1016.9
20260506060930 13 44 0.0 1.6 0.00 0.00 0.00 93 1016.9
20260506060428 14 51 3.2 3.2 0.00 0.00 0.00 93 1016.7
20260506051400 14 180 0.0 3.2 0.00 0.00 0.00 91 1017.6
20260506050857 14 50 0.0 3.2 0.00 0.00 0.00 90 1017.7
20260506050354 14 29 1.6 1.6 0.00 0.00 0.00 90 1017.6
20260506044845 15 119 0.0 1.6 0.00 0.00 0.00 89 1018.0
20260506044343 15 37 3.2 3.2 0.00 0.00 0.00 88 1017.9
20260506043839 15 50 0.0 1.6 0.00 0.00 0.00 87 1017.9
20260506043337 15 32 0.0 1.6 0.00 0.00 0.00 86 1017.9
20260506042835 15 55 0.0 1.6 0.00 0.00 0.00 85 1017.8
20260506042334 15 147 0.0 1.6 0.00 0.00 0.00 85 1017.9
20260506041832 16 76 0.0 1.6 0.00 0.00 0.00 84 1017.8
20260506041329 16 142 3.2 4.8 0.00 0.00 0.00 84 1018.0
20260506040826 16 230 0.0 3.2 0.00 0.00 0.00 84 1017.9
20260506040323 16 145 0.0 1.6 0.00 0.00 0.00 83 1017.9
20260506035819 16 147 0.0 0.0 0.00 0.00 0.00 83 1018.1
20260506035317 16 212 0.0 3.2 0.00 0.00 0.00 83 1017.9
20260506034814 16 240 0.0 3.2 0.00 0.00 0.00 82 1018.0
20260506034311 16 91 0.0 3.2 0.00 0.00 0.00 82 1018.0
20260506033808 16 214 0.0 3.2 0.00 0.00 0.00 82 1018.1
20260506033305 16 83 0.0 3.2 0.00 0.00 0.00 81 1018.1
20260506032802 16 205 0.0 6.4 0.00 0.00 0.00 81 1018.0
20260506032259 17 218 1.6 3.2 0.00 0.00 0.00 80 1018.1
20260506031755 17 304 0.0 3.2 0.00 0.00 0.00 80 1018.0
20260506031253 17 239 3.2 6.4 0.00 0.00 0.00 80 1018.2
20260506030751 17 227 1.6 3.2 0.00 0.00 0.00 79 1018.0
20260506030248 17 156 0.0 4.8 0.00 0.00 0.00 79 1018.1
20260506025745 17 142 0.0 6.4 0.00 0.00 0.00 79 1018.0
20260506025241 17 164 1.6 6.4 0.00 0.00 0.00 78 1018.0
20260506024738 17 142 1.6 3.2 0.00 0.00 0.00 78 1018.1
20260506024235 17 29 1.6 4.8 0.00 0.00 0.00 77 1018.0
20260506023731 17 229 0.0 6.4 0.00 0.00 0.00 76 1018.0
20260506023228 17 210 1.6 3.2 0.00 0.00 0.00 76 1018.0
20260506022725 17 173 3.2 4.8 0.00 0.00 0.00 76 1018.0
20260506022223 18 180 0.0 4.8 0.00 0.00 0.00 75 1018.0
20260506021721 18 142 1.6 4.8 0.00 0.00 0.00 75 1018.1
20260506021218 18 289 0.0 4.8 0.00 0.00 0.00 74 1018.0
20260506020714 18 157 4.8 6.4 0.00 0.00 0.00 74 1017.9
20260506020212 18 214 0.0 8.0 0.00 0.00 0.00 74 1018.0
20260506015709 18 226 8.0 8.0 0.00 0.00 0.00 74 1018.0
20260506015207 18 203 3.2 6.4 0.00 0.00 0.00 74 1017.7
20260506014704 18 141 0.0 4.8 0.00 0.00 0.00 73 1017.7
20260506014159 18 214 1.6 4.8 0.00 0.00 0.00 73 1017.8
20260506013658 18 184 4.8 4.8 0.00 0.00 0.00 72 1017.8
20260506013154 19 155 1.6 11.3 0.00 0.00 0.00 72 1017.7
20260506012651 19 215 1.6 6.4 0.00 0.00 0.00 72 1017.5
20260506012147 19 228 3.2 4.8 0.00 0.00 0.00 72 1017.7
20260506011645 19 2 1.6 6.4 0.00 0.00 0.00 71 1017.7
20260506011141 19 233 6.4 6.4 0.00 0.00 0.00 71 1017.4
20260506010640 19 223 8.0 8.0 0.00 0.00 0.00 71 1017.3
20260506010137 20 128 8.0 8.0 0.00 0.00 0.00 70 1017.4
20260506005633 20 210 4.8 9.7 0.00 0.00 0.00 70 1017.2
20260506005130 20 185 3.2 17.7 0.00 0.00 0.00 70 1017.2
20260506004626 20 98 0.0 8.0 0.00 0.00 0.00 69 1017.2
20260506004124 20 262 3.2 9.7 0.00 0.00 0.00 69 1017.3
20260506003620 20 115 4.8 6.4 0.00 0.00 0.00 68 1017.1
20260506003116 20 183 3.2 14.5 0.00 0.00 0.00 68 1016.9
20260506002612 20 178 3.2 12.9 0.00 0.00 0.00 68 1017.0
20260506002108 20 181 4.8 8.0 0.00 0.00 0.00 67 1016.9
20260506001604 20 181 4.8 4.8 0.00 0.00 0.00 66 1017.0
20260506001102 21 190 4.8 12.9 0.00 0.00 0.00 65 1017.0
20260506000559 21 192 3.2 8.0 0.00 0.00 0.00 64 1017.0
20260506000056 21 9 0.0 8.0 0.00 0.00 0.00 64 1017.0
20260505235555 21 182 3.2 8.0 0.00 0.00 0.00 63 1016.9
20260505235051 21 94 3.2 6.4 0.00 0.00 0.00 63 1017.2
20260505234548 21 208 3.2 8.0 0.00 0.00 0.00 62 1016.9
20260505234045 21 223 3.2 8.0 0.00 0.00 0.00 61 1016.7
20260505233542 21 203 6.4 14.5 0.00 0.00 0.00 60 1016.7
20260505233040 22 164 6.4 9.7 0.00 0.00 0.00 59 1016.8
20260505232537 22 206 6.4 20.9 0.00 0.00 0.00 59 1016.7
20260505232035 22 181 3.2 14.5 0.00 0.00 0.00 59 1016.6
20260505231531 22 92 0.0 17.7 0.00 0.00 0.00 59 1016.8
20260505231030 22 155 0.0 14.5 0.00 0.00 0.00 59 1016.7
20260505230527 23 150 1.6 9.7 0.00 0.00 0.00 59 1016.7
20260505230024 23 255 1.6 16.1 0.00 0.00 0.00 59 1016.8
20260505225520 23 193 8.0 14.5 0.00 0.00 0.00 58 1016.6
20260505225016 23 171 11.3 14.5 0.00 0.00 0.00 57 1016.8
20260505224514 23 199 4.8 14.5 0.00 0.00 0.00 58 1016.8
20260505224011 23 129 14.5 14.5 0.00 0.00 0.00 56 1016.7
20260505223508 23 217 4.8 17.7 0.00 0.00 0.00 57 1016.5
20260505223004 23 146 14.5 19.3 0.00 0.00 0.00 56 1016.4
20260505222500 24 225 11.3 16.1 0.00 0.00 0.00 55 1016.6
20260505221956 24 159 6.4 20.9 0.00 0.00 0.00 55 1016.7
20260505221454 25 200 11.3 14.5 0.00 0.00 0.00 54 1016.6
20260505220950 25 185 9.7 17.7 0.00 0.00 0.00 53 1016.7
20260505220448 25 209 3.2 11.3 0.00 0.00 0.00 54 1016.6
20260505215945 25 191 6.4 14.5 0.00 0.00 0.00 53 1016.7
20260505215443 25 155 6.4 20.9 0.00 0.00 0.00 52 1016.6
20260505214941 25 108 8.0 17.7 0.00 0.00 0.00 52 1016.6
20260505214438 25 126 6.4 22.5 0.00 0.00 0.00 50 1016.5
20260505213935 25 152 8.0 16.1 0.00 0.00 0.00 49 1016.6
20260505213433 25 185 8.0 20.9 0.00 0.00 0.00 49 1016.6
20260505212929 25 223 4.8 11.3 0.00 0.00 0.00 50 1016.5
20260505212426 25 181 8.0 19.3 0.00 0.00 0.00 49 1016.6
20260505211922 25 215 8.0 20.9 0.00 0.00 0.00 49 1016.5
20260505211420 25 202 6.4 20.9 0.00 0.00 0.00 49 1016.5
20260505210916 25 148 9.7 20.9 0.00 0.00 0.00 49 1016.5
20260505210414 25 196 6.4 14.5 0.00 0.00 0.00 49 1016.4
20260505205910 25 164 9.7 24.1 0.00 0.00 0.00 49 1016.3
20260505205409 25 246 11.3 12.9 0.00 0.00 0.00 49 1016.4
20260505204905 25 225 3.2 17.7 0.00 0.00 0.00 50 1016.4
20260505204403 26 142 9.7 20.9 0.00 0.00 0.00 48 1016.6
20260505203900 25 207 4.8 17.7 0.00 0.00 0.00 49 1016.4
20260505203356 25 168 4.8 11.3 0.00 0.00 0.00 50 1016.4
20260505202853 25 157 4.8 14.5 0.00 0.00 0.00 49 1016.4
20260505202349 26 142 16.1 22.5 0.00 0.00 0.00 47 1016.4
20260505201846 26 240 3.2 16.1 0.00 0.00 0.00 48 1016.3
20260505201343 25 226 6.4 14.5 0.00 0.00 0.00 49 1016.3
20260505200841 26 158 6.4 19.3 0.00 0.00 0.00 47 1016.3
20260505200338 26 257 16.1 20.9 0.00 0.00 0.00 47 1016.5
20260505195833 26 170 9.7 17.7 0.00 0.00 0.00 48 1016.5
20260505195331 26 188 3.2 20.9 0.00 0.00 0.00 47 1016.7
20260505194828 26 220 9.7 14.5 0.00 0.00 0.00 47 1016.8
20260505194325 26 186 6.4 12.9 0.00 0.00 0.00 48 1016.8
20260505193820 26 211 8.0 20.9 0.00 0.00 0.00 47 1017.0
20260505193318 27 141 1.6 9.7 0.00 0.00 0.00 49 1017.0
20260505192816 26 163 9.7 16.1 0.00 0.00 0.00 46 1017.0
20260505192314 26 213 6.4 9.7 0.00 0.00 0.00 45 1017.1
20260505191812 26 189 4.8 12.9 0.00 0.00 0.00 46 1017.2
20260505191309 27 116 6.4 19.3 0.00 0.00 0.00 45 1017.3
20260505190806 27 228 1.6 14.5 0.00 0.00 0.00 48 1017.2
20260505190301 27 131 3.2 11.3 0.00 0.00 0.00 44 1017.3
20260505185758 27 249 1.6 8.0 0.00 0.00 0.00 48 1017.5
20260505185254 27 241 14.5 16.1 0.00 0.00 0.00 45 1017.7
20260505184750 26 165 3.2 9.7 0.00 0.00 0.00 49 1017.4
20260505184248 26 220 9.7 17.7 0.00 0.00 0.00 45 1017.7
20260505183744 26 134 4.8 9.7 0.00 0.00 0.00 47 1017.6
20260505183242 26 231 6.4 11.3 0.00 0.00 0.00 46 1017.6
20260505182738 26 184 8.0 14.5 0.00 0.00 0.00 47 1017.6
20260505182235 26 139 9.7 16.1 0.00 0.00 0.00 47 1017.5
20260505181731 26 215 0.0 11.3 0.00 0.00 0.00 48 1017.9
20260505181229 26 174 4.8 14.5 0.00 0.00 0.00 46 1017.9
20260505180725 26 121 6.4 6.4 0.00 0.00 0.00 51 1017.9
20260505180222 26 180 11.3 14.5 0.00 0.00 0.00 47 1017.9
20260505175718 25 210 4.8 9.7 0.00 0.00 0.00 48 1017.9
20260505175215 26 198 6.4 11.3 0.00 0.00 0.00 46 1018.1
20260505174711 26 204 8.0 19.3 0.00 0.00 0.00 45 1017.9
20260505174208 26 205 3.2 6.4 0.00 0.00 0.00 52 1017.9
20260505173704 26 172 8.0 14.5 0.00 0.00 0.00 49 1017.9
20260505173201 26 243 4.8 11.3 0.00 0.00 0.00 50 1017.9
20260505172659 26 165 3.2 19.3 0.00 0.00 0.00 48 1018.1
20260505172155 26 202 3.2 11.3 0.00 0.00 0.00 47 1017.9
20260505171655 26 216 6.4 14.5 0.00 0.00 0.00 47 1018.1
20260505171152 25 89 0.0 14.5 0.00 0.00 0.00 50 1018.1
20260505170649 25 173 4.8 16.1 0.00 0.00 0.00 48 1018.1
20260505170146 25 182 3.2 12.9 0.00 0.00 0.00 48 1018.2
20260505165646 25 209 4.8 9.7 0.00 0.00 0.00 53 1018.3
20260505165143 25 105 1.6 9.7 0.00 0.00 0.00 51 1018.3
20260505164638 25 200 6.4 14.5 0.00 0.00 0.00 50 1018.4
20260505164136 25 114 4.8 9.7 0.00 0.00 0.00 50 1018.3
20260505163634 25 197 6.4 8.0 0.00 0.00 0.00 49 1018.6
20260505163132 25 203 6.4 11.3 0.00 0.00 0.00 51 1018.8
20260505162629 24 198 3.2 6.4 0.00 0.00 0.00 52 1018.7
20260505162126 25 159 6.4 17.7 0.00 0.00 0.00 51 1018.9
20260505161623 25 208 9.7 17.7 0.00 0.00 0.00 52 1018.9
20260505161120 25 152 6.4 6.4 0.00 0.00 0.00 55 1018.9
20260505160618 25 232 3.2 8.0 0.00 0.00 0.00 53 1018.9
20260505160115 25 315 4.8 4.8 0.00 0.00 0.00 54 1019.1
20260505153055 23 148 6.4 11.3 0.00 0.00 0.00 55 1018.9
20260505152551 23 92 3.2 9.7 0.00 0.00 0.00 54 1019.1
20260505152047 23 217 4.8 12.9 0.00 0.00 0.00 56 1019.2
20260505151542 23 157 4.8 9.7 0.00 0.00 0.00 56 1019.2
20260505151040 23 228 16.1 20.9 0.00 0.00 0.00 56 1019.0
20260505150536 23 205 3.2 14.5 0.00 0.00 0.00 55 1019.3
20260505140501 22 216 4.8 9.7 0.00 0.00 0.00 62 1019.1
20260505124915 19 194 3.2 6.4 0.00 0.00 0.00 71 1019.2
20260505124412 19 217 4.8 11.3 0.00 0.00 0.00 72 1019.4
20260505123908 18 162 6.4 8.0 0.00 0.00 0.00 72 1019.2
20260505123404 18 121 0.0 4.8 0.00 0.00 0.00 74 1019.3
20260505122900 18 254 6.4 8.0 0.00 0.00 0.00 74 1019.3
20260505122358 18 166 3.2 3.2 0.00 0.00 0.00 77 1019.2
20260505121854 17 116 1.6 3.2 0.00 0.00 0.00 78 1019.4
20260505121351 17 259 0.0 8.0 0.00 0.00 0.00 78 1019.3
20260505120847 16 195 3.2 3.2 0.00 0.00 0.00 80 1019.3
20260505120343 16 161 3.2 6.4 0.00 0.00 0.00 81 1019.0
20260505115842 16 160 3.2 4.8 0.00 0.00 0.00 82 1019.2
20260505115339 15 154 3.2 4.8 0.00 0.00 0.00 83 1019.1
20260505114837 15 244 1.6 6.4 0.00 0.00 0.00 85 1018.9
20260505114334 14 126 3.2 6.4 0.00 0.00 0.00 87 1018.9
20260505113830 13 181 0.0 3.2 0.00 0.00 0.00 90 1019.0
20260505113327 12 180 3.2 8.0 0.00 0.00 0.00 91 1018.9
20260505112822 12 128 3.2 4.8 0.00 0.00 0.00 91 1018.9
20260505112320 12 172 3.2 9.7 0.00 0.00 0.00 92 1018.9
20260505111816 12 129 0.0 4.8 0.00 0.00 0.00 93 1018.8
20260505111311 12 177 3.2 4.8 0.00 0.00 0.00 93 1018.8
20260505110807 11 195 0.0 3.2 0.00 0.00 0.00 93 1018.6
20260505110305 11 170 3.2 4.8 0.00 0.00 0.00 93 1019.0
20260505101739 11 178 0.0 3.2 0.00 0.00 0.00 93 1018.2
20260505101235 11 89 0.0 4.8 0.00 0.00 0.00 93 1018.1
20260505100732 11 118 1.6 4.8 0.00 0.00 0.00 92 1018.1
20260505100228 11 94 3.2 3.2 0.00 0.00 0.00 92 1017.8
20260505095724 11 134 0.0 4.8 0.00 0.00 0.00 92 1018.1
20260505095222 11 125 3.2 3.2 0.00 0.00 0.00 92 1018.1
20260505094717 11 92 1.6 3.2 0.00 0.00 0.00 91 1018.0
20260505094214 11 117 3.2 3.2 0.00 0.00 0.00 91 1018.0
20260505093710 11 120 3.2 3.2 0.00 0.00 0.00 91 1017.9
20260505093208 11 193 0.0 3.2 0.00 0.00 0.00 91 1017.7
20260505092704 11 118 1.6 3.2 0.00 0.00 0.00 91 1017.8